Time,TemperatureF,DewpointF,PressureIn,WindDirection,WindDirectionDegrees,WindSpeedMPH,WindSpeedGustMPH,Humidity,HourlyPrecipIn,Conditions,Clouds,dailyrainin,SoftwareType,DateUTC
2013-04-06 00:04:00,36.3,33.0,29.90,ESE,110,17.0,0.0,93,0.00,,,-99.99,,2013-04-06 05:04:00,
2013-04-06 00:34:00,36.6,33.0,29.90,ESE,110,17.0,0.0,93,0.00,,,-99.99,,2013-04-06 05:34:00,
2013-04-06 01:07:00,37.2,32.0,29.88,ESE,110,17.0,0.0,80,0.00,,,-99.99,,2013-04-06 06:07:00,
2013-04-06 01:34:00,37.6,32.0,29.88,ESE,110,17.0,0.0,80,0.00,,,-99.99,,2013-04-06 06:34:00,
2013-04-06 02:04:00,38.3,32.0,29.83,ESE,120,17.0,0.0,80,0.00,,,-99.99,,2013-04-06 07:04:00,
2013-04-06 02:34:00,38.8,32.0,29.83,ESE,120,17.0,0.0,80,0.00,,,-99.99,,2013-04-06 07:34:00,
2013-04-06 03:04:00,39.2,30.0,29.79,SE,130,16.0,26.0,74,0.00,,,-99.99,,2013-04-06 08:04:00,
2013-04-06 03:34:00,39.3,30.0,29.79,SE,130,16.0,26.0,74,0.00,,,-99.99,,2013-04-06 08:34:00,
2013-04-06 04:04:00,39.1,30.0,29.76,SE,130,19.0,28.0,69,0.00,,,-99.99,,2013-04-06 09:04:00,
2013-04-06 04:34:00,39.1,30.0,29.76,SE,130,19.0,28.0,69,0.00,,,-99.99,,2013-04-06 09:34:00,
2013-04-06 05:34:00,38.8,30.0,29.73,SE,130,19.0,28.0,69,0.00,,,-99.99,,2013-04-06 10:34:00,
2013-04-06 06:04:00,39.2,32.0,29.71,SE,130,16.0,25.0,75,0.00,,,-99.99,,2013-04-06 11:04:00,
2013-04-06 06:34:00,40.1,32.0,29.71,SE,130,16.0,25.0,75,0.00,,,-99.99,,2013-04-06 11:34:00,
2013-04-06 07:04:00,39.8,28.0,29.69,SE,130,16.0,24.0,64,0.00,,,-99.99,,2013-04-06 12:04:00,
2013-04-06 07:34:00,40.0,28.0,29.69,SE,130,16.0,24.0,64,0.00,,,-99.99,,2013-04-06 12:34:00,
2013-04-06 08:04:00,40.8,26.0,29.68,SE,130,14.0,21.0,60,0.00,,,-99.99,,2013-04-06 13:04:00,
2013-04-06 08:34:00,41.5,26.0,29.68,SE,130,14.0,21.0,60,0.00,,,-99.99,,2013-04-06 13:34:00,
2013-04-06 09:04:00,42.7,26.0,29.65,SE,130,16.0,23.0,56,0.00,,,-99.99,,2013-04-06 14:04:00,
2013-04-06 09:34:00,43.6,26.0,29.65,SE,130,16.0,23.0,56,0.00,,,-99.99,,2013-04-06 14:34:00,
2013-04-06 10:04:00,44.7,28.0,29.61,SE,130,13.0,23.0,52,0.00,,,-99.99,,2013-04-06 15:04:00,
2013-04-06 10:34:00,48.3,28.0,29.61,SE,130,13.0,23.0,52,0.00,,,-99.99,,2013-04-06 15:34:00,
2013-04-06 11:04:00,49.4,32.0,29.58,SE,130,16.0,0.0,53,0.00,,,-99.99,,2013-04-06 16:04:00,
2013-04-06 11:34:00,49.3,32.0,29.58,SE,130,16.0,0.0,53,0.00,,,-99.99,,2013-04-06 16:34:00,
2013-04-06 12:35:00,55.4,35.0,29.56,ESE,120,11.0,0.0,53,0.00,,,-99.99,,2013-04-06 17:35:00,
2013-04-06 13:05:00,52.4,39.0,29.55,SSE,150,9.0,0.0,58,0.00,,,-99.99,,2013-04-06 18:05:00,
2013-04-06 13:34:00,53.7,39.0,29.55,SSE,150,9.0,0.0,58,0.00,,,-99.99,,2013-04-06 18:34:00,
2013-04-06 14:04:00,50.3,41.0,29.52,East,80,9.0,0.0,62,0.00,,,-99.99,,2013-04-06 19:04:00,
2013-04-06 14:34:00,53.3,41.0,29.52,East,80,9.0,0.0,62,0.00,,,-99.99,,2013-04-06 19:34:00,
2013-04-06 15:04:00,51.1,42.0,29.51,NE,50,4.0,0.0,71,0.00,,,-99.99,,2013-04-06 20:04:00,
2013-04-06 15:34:00,47.1,42.0,29.51,NE,50,4.0,0.0,71,0.00,,,-99.99,,2013-04-06 20:34:00,
2013-04-06 16:04:00,44.4,42.0,29.50,NE,50,6.0,0.0,76,0.00,,,-99.99,,2013-04-06 21:04:00,
2013-04-06 16:34:00,41.0,42.0,29.50,NE,50,6.0,0.0,76,0.00,,,-99.99,,2013-04-06 21:34:00,
2013-04-06 17:04:00,40.4,39.0,29.54,North,350,12.0,0.0,81,0.00,,,-99.99,,2013-04-06 22:04:00,
2013-04-06 18:04:00,39.7,39.0,29.57,NNW,330,17.0,0.0,86,0.00,,,-99.99,,2013-04-06 23:04:00,
2013-04-06 18:34:00,39.5,39.0,29.60,NNW,330,12.0,21.0,86,0.00,,,-99.99,,2013-04-06 23:34:00,
2013-04-06 19:04:00,38.5,39.0,29.62,NW,320,16.0,0.0,86,0.00,,,-99.99,,2013-04-07 00:04:00,
2013-04-06 19:34:00,38.1,37.0,29.64,NNW,330,12.0,0.0,93,0.00,,,-99.99,,2013-04-07 00:34:00,
2013-04-06 20:04:00,38.1,35.0,29.65,NW,320,11.0,0.0,86,0.00,,,-99.99,,2013-04-07 01:04:00,
2013-04-06 20:34:00,38.5,35.0,29.66,NW,310,6.0,0.0,86,0.00,,,-99.99,,2013-04-07 01:34:00,
2013-04-06 21:04:00,37.3,35.0,29.68,NW,320,11.0,0.0,86,0.00,,,-99.99,,2013-04-07 02:04:00,
2013-04-06 21:34:00,37.4,35.0,29.70,NW,320,12.0,0.0,86,0.00,,,-99.99,,2013-04-07 02:34:00,
2013-04-06 22:04:00,37.7,33.0,29.71,NW,320,14.0,0.0,80,0.00,,,-99.99,,2013-04-07 03:04:00,
2013-04-06 22:34:00,38.1,33.0,29.71,NW,320,14.0,0.0,80,0.00,,,-99.99,,2013-04-07 03:34:00,
2013-04-06 23:04:00,37.3,33.0,29.73,NW,310,10.0,0.0,80,0.00,,,-99.99,,2013-04-07 04:04:00,
2013-04-06 23:34:00,37.4,33.0,29.73,NW,310,10.0,0.0,80,0.00,,,-99.99,,2013-04-07 04:34:00,